User: anonymous   Login
Location: Unspecified
(0.0000°N, 0.0000°E)
Time: 16:32:01
(UTC+00:00)
Language:

MTI - Orbit

View from above orbital plane
View from above orbital plane
View from above satellite
View from above satellite

Ground track
Ground track

The orbit data is extracted from the following two-line orbital elements,

1 26102U 00014A   17204.95032844 +.00003640 +00000-0 +73220-4 0  9996
2 26102 097.5772 017.7609 0008822 130.4778 021.9905 15.47291319960205
Epoch (UTC): 23 July 2017 22:48:28
Eccentricity: 0.0008822
inclination: 97.5772°
perigee height: 418 km
apogee height: 430 km
right ascension of ascending node: 17.7609°
argument of perigee: 130.4778°
revolutions per day: 15.47291319
mean anomaly at epoch: 21.9905°
orbit number at epoch: 96020

The dashed part of the orbit path shows where the satellite is in the earth's shadow,  

DLR